LNI76 WIPP-OEMA

Flight info

Callsign LNI76
Flight time N/A
Altitude 34000
Route KUALA W12 PKU P570 TEBIT/N0477F360 P570 TVM UL425 MAMIG/N0471F380 UL425 ASPUX N315 SITOL/N0424F280 L883 PUSON/N0469F380 L883 KITUB Y511 ELONU
Aircraft A339/H-SADE1E2E3GHIJ3J5M1P2RWXY/LB2D1

Departure

Time N/A
Airport Sultan Mahmud Badaruddin II Airport (WIPP)

Arrival

Time 2026-05-08 02:12
Airport Prince Mohammad Bin Abdulaziz Airport (OEMA)
Time Latitude Longitude Altitude Speed Heading
2026-05-08 01:43 24.01717 41.03395 21911 ft 394 kts 281°
2026-05-08 01:43 24.02516 41.00538 21479 ft 391 kts 281°
2026-05-08 01:43 24.03308 40.97715 21033 ft 390 kts 281°
2026-05-08 01:44 24.04107 40.94872 20593 ft 388 kts 281°
2026-05-08 01:44 24.04894 40.92087 20153 ft 386 kts 281°
2026-05-08 01:44 24.05693 40.89263 19720 ft 385 kts 281°
2026-05-08 01:44 24.06467 40.86511 19303 ft 383 kts 281°
2026-05-08 01:45 24.07248 40.83729 18889 ft 381 kts 281°
2026-05-08 01:45 24.08021 40.80966 18466 ft 379 kts 281°
2026-05-08 01:45 24.08783 40.78240 18050 ft 378 kts 281°
2026-05-08 01:45 24.09549 40.75501 17647 ft 376 kts 281°
2026-05-08 01:46 24.10313 40.72754 17223 ft 374 kts 282°
2026-05-08 01:46 24.11065 40.70045 16829 ft 372 kts 282°
2026-05-08 01:46 24.11811 40.67355 16450 ft 369 kts 282°
2026-05-08 01:46 24.12544 40.64714 16334 ft 363 kts 282°
2026-05-08 01:47 24.13279 40.62064 16289 ft 362 kts 282°
2026-05-08 01:47 24.14002 40.59459 16221 ft 361 kts 282°
2026-05-08 01:47 24.14736 40.56810 16150 ft 360 kts 282°
2026-05-08 01:48 24.16459 40.51670 16012 ft 366 kts 296°
2026-05-08 01:48 24.18040 40.49462 15830 ft 378 kts 309°
2026-05-08 01:48 24.19923 40.47438 15410 ft 379 kts 311°
2026-05-08 01:48 24.21807 40.45454 15020 ft 377 kts 311°
2026-05-08 01:49 24.23707 40.43450 14645 ft 374 kts 311°
2026-05-08 01:49 24.25554 40.41486 14297 ft 371 kts 312°
2026-05-08 01:49 24.27388 40.39526 13948 ft 368 kts 312°
2026-05-08 01:49 24.29218 40.37565 13677 ft 364 kts 312°
2026-05-08 01:50 24.31021 40.35632 13417 ft 357 kts 312°
2026-05-08 01:50 24.32766 40.33754 13158 ft 351 kts 311°
2026-05-08 01:50 24.34490 40.31898 12870 ft 347 kts 311°
2026-05-08 01:50 24.36202 40.30054 12382 ft 338 kts 311°
2026-05-08 01:51 24.37834 40.28294 11997 ft 323 kts 311°
2026-05-08 01:51 24.39405 40.26600 11698 ft 312 kts 311°
2026-05-08 01:51 24.40958 40.24918 11400 ft 312 kts 311°
2026-05-08 01:51 24.42515 40.23232 11130 ft 314 kts 312°
2026-05-08 01:52 24.44052 40.21569 10904 ft 310 kts 312°
2026-05-08 01:52 24.45588 40.19910 10694 ft 306 kts 311°
2026-05-08 01:52 24.47089 40.18288 10487 ft 302 kts 312°
2026-05-08 01:52 24.48577 40.16678 10267 ft 299 kts 311°
2026-05-08 01:53 24.50056 40.15074 10044 ft 296 kts 311°
2026-05-08 01:53 24.51496 40.13512 9859 ft 292 kts 312°
2026-05-08 01:53 24.52931 40.11956 9544 ft 287 kts 312°
2026-05-08 01:53 24.54339 40.10429 9209 ft 279 kts 312°
2026-05-08 01:54 24.55708 40.08947 8994 ft 275 kts 312°
2026-05-08 01:54 24.57069 40.07471 8823 ft 272 kts 312°
2026-05-08 01:54 24.58385 40.06027 8640 ft 268 kts 307°
2026-05-08 01:54 24.59233 40.04243 8359 ft 261 kts 276°
2026-05-08 01:55 24.59184 40.02321 8200 ft 252 kts 259°
2026-05-08 01:55 24.58908 40.00388 8140 ft 255 kts 259°
2026-05-08 01:55 24.58635 39.98457 8107 ft 256 kts 259°
2026-05-08 01:55 24.58374 39.96527 8093 ft 256 kts 259°
2026-05-08 01:56 24.58118 39.94592 8086 ft 256 kts 259°
2026-05-08 01:56 24.57866 39.92656 8081 ft 257 kts 259°
2026-05-08 01:56 24.57617 39.90723 8077 ft 257 kts 260°
2026-05-08 01:56 24.57370 39.88791 8074 ft 256 kts 259°
2026-05-08 01:57 24.57120 39.86849 8067 ft 256 kts 260°
2026-05-08 01:57 24.56864 39.84907 8066 ft 254 kts 256°
2026-05-08 01:57 24.56165 39.83242 8027 ft 239 kts 223°
2026-05-08 01:57 24.54760 39.82344 8035 ft 232 kts 193°
2026-05-08 01:58 24.53147 39.82346 8045 ft 232 kts 171°
2026-05-08 01:58 24.51579 39.82697 8043 ft 232 kts 170°
2026-05-08 01:58 24.49976 39.83058 8041 ft 232 kts 171°
2026-05-08 01:58 24.48398 39.83406 8040 ft 231 kts 171°
2026-05-08 01:59 24.46817 39.83747 8036 ft 231 kts 171°
2026-05-08 01:59 24.45226 39.84086 8039 ft 231 kts 171°
2026-05-08 01:59 24.43646 39.84421 8044 ft 232 kts 171°
2026-05-08 01:59 24.42063 39.84757 8043 ft 232 kts 171°
2026-05-08 02:00 24.40448 39.85098 8048 ft 233 kts 171°
2026-05-08 02:00 24.38854 39.85437 7988 ft 233 kts 171°
2026-05-08 02:00 24.37260 39.85773 7901 ft 232 kts 171°
2026-05-08 02:00 24.35680 39.86108 7795 ft 233 kts 171°
2026-05-08 02:01 24.34079 39.86446 7592 ft 232 kts 171°
2026-05-08 02:01 24.32501 39.86779 7393 ft 232 kts 171°
2026-05-08 02:01 24.30908 39.87116 7185 ft 231 kts 171°
2026-05-08 02:01 24.29339 39.87448 7075 ft 229 kts 171°
2026-05-08 02:02 24.27747 39.87783 7078 ft 230 kts 171°
2026-05-08 02:02 24.26168 39.88114 7083 ft 232 kts 170°
2026-05-08 02:02 24.24585 39.88448 7093 ft 231 kts 171°
2026-05-08 02:02 24.22984 39.88763 7092 ft 231 kts 177°
2026-05-08 02:03 24.21438 39.88416 7080 ft 229 kts 212°
2026-05-08 02:03 24.20351 39.87185 7118 ft 231 kts 244°
2026-05-08 02:03 24.19925 39.85488 7202 ft 233 kts 258°
2026-05-08 02:03 24.19639 39.83737 7325 ft 233 kts 258°
2026-05-08 02:04 24.19344 39.82001 7335 ft 229 kts 258°
2026-05-08 02:04 24.19245 39.80279 7160 ft 228 kts 282°
2026-05-08 02:04 24.19995 39.78783 6979 ft 231 kts 316°
2026-05-08 02:04 24.21407 39.77953 6811 ft 231 kts 346°
2026-05-08 02:05 24.22979 39.77635 6646 ft 229 kts 349°
2026-05-08 02:05 24.24533 39.77342 6491 ft 226 kts 348°
2026-05-08 02:05 24.26075 39.77039 6392 ft 220 kts 348°
2026-05-08 02:05 24.27570 39.76734 6271 ft 216 kts 348°
2026-05-08 02:06 24.29034 39.76430 6123 ft 212 kts 348°
2026-05-08 02:06 24.30476 39.76127 5960 ft 208 kts 348°
2026-05-08 02:06 24.31898 39.75825 5765 ft 204 kts 348°
2026-05-08 02:06 24.33285 39.75529 5573 ft 201 kts 348°
2026-05-08 02:07 24.34656 39.75238 5379 ft 197 kts 348°
2026-05-08 02:07 24.35980 39.74956 5103 ft 192 kts 349°
2026-05-08 02:07 24.37271 39.74682 4833 ft 187 kts 349°
2026-05-08 02:07 24.38545 39.74411 4598 ft 180 kts 349°
2026-05-08 02:08 24.39711 39.74163 4534 ft 166 kts 349°
2026-05-08 02:08 24.40853 39.73918 4533 ft 167 kts 349°
2026-05-08 02:08 24.42002 39.73671 4366 ft 165 kts 349°
2026-05-08 02:08 24.43118 39.73430 4152 ft 158 kts 350°
2026-05-08 02:09 24.44188 39.73199 3953 ft 154 kts 351°
2026-05-08 02:09 24.45233 39.72975 3773 ft 154 kts 350°
2026-05-08 02:09 24.46292 39.72749 3583 ft 154 kts 350°
2026-05-08 02:09 24.47345 39.72523 3391 ft 153 kts 351°
2026-05-08 02:10 24.48388 39.72300 3194 ft 152 kts 351°
2026-05-08 02:10 24.49428 39.72079 2999 ft 151 kts 351°
2026-05-08 02:10 24.50468 39.71857 2806 ft 150 kts 351°
2026-05-08 02:10 24.51493 39.71639 2622 ft 154 kts 351°
2026-05-08 02:11 24.52553 39.71414 2415 ft 153 kts 351°
2026-05-08 02:11 24.53574 39.71195 2240 ft 145 kts 351°
2026-05-08 02:11 24.54573 39.70987 2191 ft 145 kts 352°
2026-05-08 02:11 24.55473 39.70811 2175 ft 104 kts 351°
2026-05-08 02:12 24.55980 39.70693 2176 ft 49 kts 349°
2026-05-08 02:12 24.56187 39.70709 2176 ft 15 kts 24°
2026-05-08 02:12 24.56264 39.70756 2176 ft 11 kts 46°
2026-05-08 02:12 24.56264 39.70793 2176 ft 4 kts 149°
2026-05-08 02:13 24.56228 39.70814 2176 ft 6 kts 151°
2026-05-08 02:13 24.56180 39.70834 2176 ft 7 kts 167°
2026-05-08 02:13 24.56122 39.70846 2176 ft 9 kts 170°
2026-05-08 02:13 24.56056 39.70859 2176 ft 10 kts 169°
2026-05-08 02:14 24.55983 39.70874 2175 ft 11 kts 169°
2026-05-08 02:14 24.55904 39.70892 2175 ft 11 kts 169°
2026-05-08 02:14 24.55827 39.70908 2175 ft 10 kts 169°
2026-05-08 02:14 24.55750 39.70924 2175 ft 11 kts 169°
2026-05-08 02:15 24.55668 39.70942 2175 ft 12 kts 169°
2026-05-08 02:15 24.55580 39.70961 2175 ft 13 kts 169°
2026-05-08 02:15 24.55493 39.70979 2175 ft 12 kts 169°
2026-05-08 02:15 24.55404 39.70998 2174 ft 13 kts 169°
2026-05-08 02:16 24.55316 39.71017 2174 ft 10 kts 169°
2026-05-08 02:16 24.55256 39.71037 2174 ft 8 kts 145°
2026-05-08 02:16 24.55232 39.71093 2174 ft 8 kts 92°
2026-05-08 02:16 24.55240 39.71160 2174 ft 8 kts 79°
2026-05-08 02:17 24.55236 39.71214 2174 ft 6 kts 99°
2026-05-08 02:17 24.55239 39.71269 2174 ft 7 kts 78°
2026-05-08 02:17 24.55249 39.71316 2174 ft 4 kts 78°
2026-05-08 02:17 24.55250 39.71323 2174 ft 0 kts 78°